805  
NZUS99 KDVN 230810  
HRRRRR  
HOURLY WEATHER ROUNDUP  
NATIONAL WEATHER SERVICE QUAD CITIES IA IL  
300 AM CDT THU MAR 23 2017  
 
NOTE: "FAIR" INDICATES FEW OR NO CLOUDS BELOW 12,000 FEET WITH  
NO SIGNIFICANT WEATHER AND/OR OBSTRUCTIONS TO VISIBILITY.  
------------------------------------------------------------------  
 
CITY SKY/WX TMP DP RH WIND PRES REMARKS  
BURLINGTON CLOUDY 37 22 54 SE15G21 30.30F WCI 28  
CEDAR RAPIDS CLOUDY 35 22 58 SE10 30.30S WCI 27  
DAVENPORT CLOUDY 32 21 64 SE16 30.35F WCI 21  
DUBUQUE CLOUDY 32 20 61 SE15 30.34S WCI 22  
IOWA CITY CLOUDY 37 23 56 SE8 30.34S WCI 31  
MOLINE CLOUDY 34 21 59 SE14 30.35F WCI 25  
------------------------------------------------------------------  
THE STATIONS BELOW ARE NOT NWS STATIONS AND ARE NOT SUBJECT TO NWS  
QUALITY CONTROL. SOME STATIONS DO NOT REPORT WEATHER SUCH AS FOG.  
------------------------------------------------------------------  
 
CITY SKY/WX TMP DP RH WIND PRES REMARKS  
CLINTON PTCLDY 32 24 72 SE15 30.37F WCI 22  
FAIRFIELD CLOUDY 39 19 45 SE13G18 30.27F WCI 32  
FORT MADISON CLOUDY 37 21 52 SE13 30.31S WCI 29  
FREEPORT CLOUDY 29 20 69 E10 30.41F WCI 20  
INDEPENDENCE CLOUDY 34 23 64 SE20 30.30S WCI 22  
KEOKUK CLOUDY 39 21 48 SE10G17 30.29F WCI 32  
MACOMB CLOUDY 36 22 58 SE16 30.34F WCI 26  
MONTICELLO PTCLDY 32 21 64 SE12 30.33S WCI 23  
MUSCATINE CLOUDY 37 21 52 SE12 30.33F WCI 30  
SAVANNA CLOUDY 33 20 59 SE9 30.38F WCI 26  
STERLING/R.F. CLOUDY 32 22 66 E14 30.38F WCI 22  
VINTON CLOUDY 37 23 56 SE17 30.30S WCI 28  
WASHINGTON CLOUDY 37 23 56 SE12 30.32S WCI 30  
------------------------------------------------------------------  
 
 
CLICK HERE TO GO TO PREVIOUS BULLETINS.

The Nexlab IL Page
The Nexlab IA Page
The Nexlab MO Page Main Text Page